This is the latest recevied weather packets stored in our database for station/object KB4MOX. If no packets are shown the sender has not sent any weather packets the latest 10 day(s).
| Time | Temp. | Humidity | Pressure | Rain* | Wind** | Luminosity | Snow |
|---|---|---|---|---|---|---|---|
| 1788092840 | 22.78° C | 98% | 1022.1 hPa | 0 mm | - | 69 W/m² | - |
| 1788092535 | 22.78° C | 98% | 1022.4 hPa | 0 mm | - | 68 W/m² | - |
| 1788092230 | 22.78° C | 98% | 1022.2 hPa | 0 mm | - | 51 W/m² | - |
| 1788091930 | 22.78° C | 98% | 1022.2 hPa | 0 mm | - | 53 W/m² | - |
| 1788091630 | 22.78° C | 98% | 1022 hPa | 0 mm | - | 38 W/m² | - |
| 1788091327 | 22.78° C | 98% | 1022.3 hPa | 0 mm | - | 36 W/m² | - |
| 1788091022 | 22.78° C | 98% | 1022.2 hPa | 0 mm | - | 31 W/m² | - |
| 1788090718 | 22.78° C | 98% | 1022.1 hPa | 0 mm | - | 29 W/m² | - |
| 1788090414 | 22.78° C | 98% | 1021.9 hPa | 0 mm | - | 23 W/m² | - |
| 1788090114 | 22.78° C | 98% | 1022 hPa | 0 mm | - | 18 W/m² | - |
| 1788089810 | 22.78° C | 98% | 1021.8 hPa | 0 mm | - | 16 W/m² | - |
| 1788089504 | 22.78° C | 98% | 1021.9 hPa | 0 mm | - | 13 W/m² | - |
| 1788089201 | 22.78° C | 98% | 1021.8 hPa | 0 mm | - | 10 W/m² | - |
| 1788088896 | 22.78° C | 98% | 1021.8 hPa | 0 mm | - | 7 W/m² | - |
| 1788088604 | 22.78° C | 98% | 1021.7 hPa | 0 mm | - | 4 W/m² | - |
| 1788088288 | 22.22° C | 98% | 1021.6 hPa | 0 mm | - | 3 W/m² | - |
| 1788087988 | 22.22° C | 98% | 1021.5 hPa | 0 mm | - | 1 W/m² | - |
| 1788087685 | 22.22° C | 98% | 1021.5 hPa | 0 mm | - | 1 W/m² | - |
| 1788087384 | 22.22° C | 97% | 1021.1 hPa | 0 mm | - | 0 W/m² | - |
| 1788087080 | 22.22° C | 97% | 1021.1 hPa | 0 mm | - | 0 W/m² | - |
| 1788086777 | 22.22° C | 97% | 1021.2 hPa | 0 mm | - | 0 W/m² | - |
| 1788086473 | 22.22° C | 97% | 1021.4 hPa | 0 mm | - | 0 W/m² | - |
| 1788086172 | 22.22° C | 97% | 1021.1 hPa | 0 mm | - | 0 W/m² | - |
| 1788085873 | 22.22° C | 97% | 1021.1 hPa | 0 mm | - | 0 W/m² | - |
| 1788085572 | 22.22° C | 97% | 1020.9 hPa | 0 mm | - | 0 W/m² | - |
* Rain latest hour (hover to see other rain measurements)
** Current wind speed in m/s (hover to see current wind gust speed)